{"data":{"norad_id":56326,"intl_designator":"2023-058K","name":"STARLINK-5980","alt_names":[],"object_type":"PAYLOAD","status":"ACTIVE","operator":null,"country":"US","launch_date":"2023-04-27","launch_site_code":"AFWTR","launch_vehicle":null,"mission":null,"orbit_class":"UNKNOWN","rcs_meters":null,"size_class":null,"mass_kg":null,"dimensions":null,"purposes":["comms"],"wikipedia_slug":null,"has_3d_model":false,"image_url":null,"decayed_at":null,"tle_current":{"epoch":"2026-09-20T22:00:03.000096Z","epoch_age_seconds":72794,"freshness":"FRESH","line1":"1 56326U 23058K   26263.91670139  .00077260  00000+0  35060-2 0  9992","line2":"2 56326  97.2832 257.7708 0001171  83.1463  14.8228 15.20484382  5485","mean_motion":15.20484382,"eccentricity":0.0001171,"inclination_deg":97.2832,"raan_deg":257.7708,"arg_perigee_deg":83.1463,"mean_anomaly_deg":14.8228,"bstar":0.003506,"rev_number":548,"period_min":94.706661709071,"perigee_km":503.57257047758,"apogee_km":505.18445561074,"semimajor_km":6882.5155130442,"source":"CELESTRAK","updated_at":"2026-09-21T09:00:33.402243Z"}}}